[[{"header":{"parameterUnit":"m.s-1","parameterCategory":1,"la1":30.2991,"la2":30.254,"lo1":-89.0895,"lo2":-89.0444,"dy":0.0017,"dx":0.0017,"nx":28,"ny":28,"refTime":"2025-08-04T21:00:00:Z","depth":0,"parameterNumber":2,"parameterNumberName":"U-component_of_WINDS"},"data":[0,0,0,0,0,0,0,0,0,0,0,0,0,0,0,0,0,0,0,0,0,0,0,0,0,0,0,0,0,0,0,0,0,0,0,0,0,0,0,0,0,0,0,0,0,0,0,0,0,0,0,0,0,0,0,0,0,0,-2.0842,-2.0841,0,-2.0769,-2.0768,-2.0767,-2.0698,-2.0698,-2.0697,-2.0696,-2.062,-2.0619,-2.0617,0,0,0,0,0,0,0,0,0,0,0,0,0,-2.0922,-2.092,-2.0842,-2.0841,-2.084,-2.0769,-2.0768,-2.0767,-2.0699,-2.0698,-2.0697,-2.0696,-2.062,-2.0619,-2.0617,0,0,0,0,0,0,0,0,0,0,0,0,0,-2.0872,-2.092,-2.0842,-2.0798,-2.0793,-2.0769,-2.0768,-2.0767,-2.0699,-2.0698,-2.0696,-2.0695,-2.0621,-2.0619,-2.0617,-2.0631,0,0,-2.0612,-2.0611,0,0,0,0,0,0,0,0,-2.0874,-2.0869,-2.0805,-2.0801,-2.0795,-2.0741,-2.0768,-2.0721,-2.0699,-2.0735,-2.0696,-2.0694,-2.0661,-2.0656,-2.0645,-2.0628,-2.0624,-2.0611,-2.061,-2.0609,-2.0609,0,0,0,0,0,0,0,-2.0878,-2.0871,-2.0813,-2.0804,-2.0798,-2.0781,-2.0772,-2.0759,-2.0706,-2.0731,-2.0726,-2.0718,-2.0658,-2.0647,-2.0643,-2.0623,-2.0611,-2.061,-2.0609,-2.0608,-2.0612,-2.0613,0,0,0,0,0,0,-2.0889,-2.0875,-2.0815,-2.0811,-2.0833,-2.078,-2.0771,-2.076,-2.0706,-2.0696,-2.072,-2.0716,-2.0651,-2.0645,-2.064,-2.0651,-2.0609,-2.0608,-2.0607,-2.061,-2.0612,-2.0613,0,0,0,0,0,0,-2.0891,-2.0884,-2.0818,-2.0841,-2.0832,-2.078,-2.0769,-2.0759,-2.0748,-2.0697,-2.0687,-2.0718,-2.065,-2.0642,-2.0633,-2.0648,-2.0607,-2.0605,-2.0609,-2.0611,-2.0613,-2.0675,0,0,0,0,0,0,-2.0893,-2.0885,-2.089,-2.0842,-2.0831,-2.0814,-2.077,-2.0759,-2.0745,-2.0739,-2.0693,-2.0684,-2.0648,-2.0637,-2.0632,-2.0644,-2.0604,-2.0607,-2.061,-2.0612,-2.0672,-2.0679,-2.0685,0,0,0,0,0,-2.0896,-2.0911,-2.0891,-2.0884,-2.0836,-2.0815,-2.0808,-2.0767,-2.0746,-2.0751,-2.0718,-2.0685,-2.0647,-2.0636,-2.063,-2.0642,-2.0606,-2.0609,-2.0612,-2.0669,-2.0677,-2.0685,0,0,0,0,0,0,-2.0962,-2.0904,-2.0881,-2.0881,-2.0853,-2.0803,-2.0808,-2.0778,-2.0756,-2.0751,-2.07,-2.0691,-2.0687,-2.0664,-2.0653,-2.0652,-2.0622,-2.0624,-2.0667,-2.0675,-2.0682,-2.0687,-2.0602,0,0,0,0,0,-2.0977,-2.0965,-2.0914,-2.0919,-2.0906,-2.086,-2.0849,-2.0819,-2.0789,-2.0777,-2.0743,-2.0715,-2.0696,-2.0684,-2.0665,-2.0668,-2.0656,-2.0673,-2.068,-2.0686,-2.0688,-2.0686,-2.0693,-2.0622,-2.0622,-2.0622,0,0,-2.1007,-2.0973,-2.0969,-2.0931,-2.0907,-2.0894,-2.085,-2.084,-2.083,-2.0775,-2.0764,-2.0739,-2.0703,-2.07,-2.0697,-2.0681,-2.0705,-2.069,-2.0695,-2.0693,-2.069,-2.0696,-2.0702,-2.0624,-2.0624,-2.0623,0,0,-2.1055,-2.1029,-2.1029,-2.1005,-2.0968,-2.0937,-2.0937,-2.0891,-2.0872,-2.0861,-2.0819,-2.0806,-2.0776,-2.0751,-2.0735,-2.0773,-2.0742,-2.0768,-2.0803,-2.0802,-2.0808,-2.0813,-2.0825,-2.083,-2.077,-2.077,-2.077,0,-2.1096,-2.1077,-2.1033,-2.1025,-2.1009,-2.0959,-2.0958,-2.0937,-2.0895,-2.0885,-2.0867,-2.0827,-2.0799,-2.0789,-2.0798,-2.0787,-2.0785,-2.0773,-2.0811,-2.0815,-2.0819,-2.083,-2.0834,-2.0774,-2.0773,-2.0773,-2.0773,0,-2.1129,-2.1116,-2.1121,-2.1082,-2.1067,-2.1062,-2.1017,-2.1007,-2.0979,-2.0949,-2.0937,-2.0902,-2.0874,-2.0869,-2.0842,-2.0855,-2.0846,-2.082,-2.0789,-2.0829,-2.0839,-2.0843,-2.0778,-2.0777,-2.0776,-2.0775,0,0,-2.1216,-2.1153,-2.1155,-2.1136,-2.1092,-2.108,-2.1073,-2.1045,-2.1037,-2.101,-2.1002,-2.0976,-2.0952,-2.0934,-2.0903,-2.0903,-2.0933,-2.0877,-2.0875,-2.0887,-2.0943,-2.0962,-2.0968,-2.0912,-2.0913,-2.0913,-2.0946,0,-2.1256,-2.124,-2.12,-2.1197,-2.1183,-2.1135,-2.1129,-2.11,-2.1072,-2.1056,-2.1025,-2.1007,-2.0978,-2.0966,-2.0963,-2.093,-2.0943,-2.0927,-2.0903,-2.0903,-2.0912,-2.0973,-2.0992,-2.1025,-2.0949,-2.095,-2.095,0,-2.13,-2.1275,-2.1271,-2.1225,-2.1218,-2.1213,-2.1184,-2.117,-2.1136,-2.1115,-2.1095,-2.106,-2.1049,-2.1021,-2.1004,-2.0994,-2.0981,-2.0963,-2.0964,-2.0959,-2.0928,-2.0968,-2.1034,-2.1039,-2.0956,-2.0955,-2.0955,0,-2.1362,-2.1328,-2.1321,-2.1306,-2.1254,-2.1251,-2.1229,-2.1194,-2.1179,-2.1153,-2.1143,-2.1117,-2.1102,-2.1082,-2.1041,-2.1024,-2.1028,-2.0996,-2.1009,-2.101,-2.1011,-2.1012,-2.1075,-2.1006,-2.1006,-2.1006,-2.1006,0,-2.141,-2.1408,-2.1348,-2.1343,-2.1339,-2.1293,-2.1291,-2.1264,-2.1233,-2.1222,-2.1179,-2.1169,-2.1116,-2.1099,-2.1067,-2.1057,-2.1051,-2.1034,-2.1025,-2.1037,-2.1039,-2.1027,-2.1023,-2.1007,-2.1007,-2.1007,-2.1006,0,-2.1478,-2.1438,-2.1426,-2.1377,-2.1365,-2.1364,-2.1322,-2.1315,-2.1284,-2.127,-2.1264,-2.1216,-2.1194,-2.1152,-2.1118,-2.1096,-2.1093,-2.1079,-2.1104,-2.1099,-2.1113,-2.1112,-2.1171,-2.1175,-2.1105,-2.1106,-2.1106,0,-2.151,-2.1508,-2.1459,-2.1448,-2.1428,-2.1411,-2.1396,-2.135,-2.1336,-2.1297,-2.1294,-2.1269,-2.1247,-2.1214,-2.1175,-2.1149,-2.1133,-2.1155,-2.1129,-2.114,-2.1131,-2.1131,-2.113,-2.1161,-2.1162,-2.1163,-2.1163,0,-2.1572,-2.1552,-2.1532,-2.1504,-2.1487,-2.1464,-2.1438,-2.1431,-2.1379,-2.1365,-2.1343,-2.1325,-2.1291,-2.1266,-2.1234,-2.121,-2.1178,-2.1172,-2.1173,-2.1185,-2.1199,-2.119,-2.1119,-2.1171,-2.117,-2.1169,-2.1169,-2.1169,-2.1622,-2.1617,-2.1581,-2.156,-2.1536,-2.1512,-2.1503,-2.1471,-2.1451,-2.142,-2.1394,-2.1373,-2.1338,-2.1292,-2.127,-2.1252,-2.1237,-2.1239,-2.1239,-2.124,-2.1244,-2.1203,-2.1246,-2.1246,-2.1246,-2.1246,-2.1245,0,-2.1679,-2.1654,-2.1635,-2.16,-2.1583,-2.1554,-2.1524,-2.1511,-2.1494,-2.1464,-2.1442,-2.1416,-2.1391,-2.1351,-2.1323,-2.1316,-2.13,-2.131,-2.1309,-2.1304,-2.1261,-2.1262,-2.1323,-2.1323,-2.1323,-2.1323,-2.1323,-2.1323,-2.1707,-2.1697,-2.1673,-2.1649,-2.1624,-2.1603,-2.1588,-2.1566,-2.1541,-2.1514,-2.1493,-2.1467,-2.1432,-2.1401,-2.1377,-2.1366,-2.1357,-2.1371,-2.1355,-2.1315,-2.1307,-2.13,-2.1301,-2.137,-2.137,-2.1399,-2.1399,-2.14]},{"header":{"parameterUnit":"m.s-1","parameterCategory":1,"la1":30.2991,"la2":30.254,"lo1":-89.0895,"lo2":-89.0444,"dy":0.0017,"dx":0.0017,"nx":28,"ny":28,"refTime":"2025-08-04T21:00:00:Z","depth":0,"parameterNumber":3,"parameterNumberName":"V-component_of_WINDS"},"data":[0,0,0,0,0,0,0,0,0,0,0,0,0,0,0,0,0,0,0,0,0,0,0,0,0,0,0,0,0,0,0,0,0,0,0,0,0,0,0,0,0,0,0,0,0,0,0,0,0,0,0,0,0,0,0,0,0,0,0.4835,0.4835,0,0.4782,0.4782,0.4781,0.4752,0.4752,0.4752,0.4752,0.4696,0.4695,0.4693,0,0,0,0,0,0,0,0,0,0,0,0,0,0.4911,0.4909,0.4835,0.4835,0.4834,0.4782,0.4782,0.4781,0.4752,0.4752,0.4752,0.4752,0.4697,0.4695,0.4693,0,0,0,0,0,0,0,0,0,0,0,0,0,0.487,0.4909,0.4835,0.4814,0.4811,0.4782,0.4782,0.4781,0.4752,0.4752,0.4752,0.4752,0.4697,0.4695,0.4693,0.4682,0,0,0.4686,0.4685,0,0,0,0,0,0,0,0,0.4872,0.4867,0.4817,0.4815,0.4812,0.4774,0.4788,0.4747,0.4752,0.4775,0.4752,0.4752,0.4722,0.4718,0.4708,0.4679,0.4677,0.4686,0.4685,0.4684,0.4683,0,0,0,0,0,0,0,0.4875,0.4869,0.4814,0.4817,0.4814,0.4806,0.48,0.478,0.4749,0.4773,0.477,0.4765,0.472,0.471,0.4706,0.4676,0.4686,0.4684,0.4683,0.4682,0.4635,0.4635,0,0,0,0,0,0,0.4882,0.4872,0.4816,0.4813,0.4843,0.4805,0.4798,0.4786,0.475,0.4744,0.4765,0.4763,0.4714,0.4709,0.4704,0.4689,0.4684,0.4682,0.4681,0.4635,0.4635,0.4635,0,0,0,0,0,0,0.4883,0.4877,0.4818,0.4842,0.4834,0.4804,0.479,0.4785,0.4775,0.4744,0.4738,0.476,0.4714,0.4707,0.4688,0.4686,0.4681,0.4679,0.4635,0.4635,0.4635,0.4657,0,0,0,0,0,0,0.4886,0.4878,0.4873,0.4842,0.4832,0.4803,0.479,0.4784,0.4771,0.4769,0.4737,0.4732,0.4713,0.4691,0.4686,0.4683,0.4677,0.4635,0.4635,0.4635,0.4656,0.4658,0.4659,0,0,0,0,0,0.4888,0.4881,0.4873,0.4867,0.4826,0.4803,0.4797,0.4776,0.4771,0.4767,0.4747,0.4733,0.4687,0.4689,0.4683,0.468,0.4635,0.4635,0.4635,0.4656,0.4658,0.4659,0,0,0,0,0,0,0.4913,0.4877,0.4867,0.485,0.483,0.4798,0.4791,0.4779,0.4759,0.4757,0.4731,0.4724,0.4707,0.4691,0.4694,0.4667,0.466,0.4658,0.4678,0.4679,0.4681,0.4685,0.4676,0,0,0,0,0,0.4916,0.4901,0.487,0.4857,0.4848,0.4821,0.481,0.4796,0.4773,0.4764,0.4743,0.4721,0.4702,0.469,0.467,0.4654,0.4647,0.4649,0.465,0.4652,0.4651,0.4641,0.4642,0.4635,0.4635,0.4635,0,0,0.4923,0.4902,0.4893,0.4862,0.4844,0.4828,0.4814,0.4798,0.4785,0.4761,0.4742,0.4725,0.4699,0.4681,0.4672,0.4668,0.4651,0.4652,0.4653,0.4651,0.4641,0.4642,0.4642,0.4635,0.4635,0.4635,0,0,0.4927,0.491,0.4897,0.488,0.4854,0.4837,0.4834,0.4804,0.4792,0.4772,0.4754,0.4739,0.4706,0.4689,0.4675,0.4674,0.466,0.4668,0.4675,0.4666,0.4666,0.4667,0.4666,0.4666,0.4667,0.4667,0.4667,0,0.4939,0.4914,0.4892,0.4877,0.4864,0.4842,0.4829,0.4814,0.4783,0.4774,0.4769,0.4728,0.4709,0.4687,0.4687,0.4677,0.4672,0.4671,0.4668,0.4668,0.4668,0.4667,0.4667,0.4668,0.4668,0.4668,0.4668,0,0.493,0.4913,0.4906,0.4877,0.4863,0.4849,0.4825,0.4813,0.48,0.4783,0.4762,0.4739,0.4715,0.4708,0.4695,0.4684,0.4682,0.4673,0.4665,0.467,0.4669,0.4668,0.467,0.467,0.4669,0.4669,0,0,0.4947,0.4907,0.4905,0.4891,0.4861,0.4848,0.4833,0.4809,0.48,0.4779,0.4765,0.4739,0.4731,0.4716,0.47,0.4692,0.4692,0.4684,0.4683,0.4686,0.4678,0.4685,0.4684,0.4683,0.4683,0.4683,0.468,0,0.4947,0.4919,0.4899,0.4879,0.4863,0.4843,0.483,0.481,0.4794,0.4778,0.4759,0.4741,0.4732,0.4723,0.4714,0.4694,0.469,0.4694,0.467,0.4669,0.4677,0.4684,0.469,0.4689,0.4679,0.4679,0.4679,0,0.4942,0.4923,0.4902,0.4874,0.4866,0.4855,0.4832,0.4817,0.4794,0.4782,0.4766,0.475,0.4733,0.4727,0.4703,0.4706,0.4695,0.4684,0.4684,0.468,0.4674,0.468,0.4688,0.4688,0.4678,0.4678,0.4678,0,0.4957,0.4926,0.4909,0.4898,0.4865,0.4857,0.4843,0.482,0.4807,0.4787,0.4779,0.4757,0.4744,0.4728,0.4706,0.4704,0.4684,0.4676,0.4674,0.4674,0.467,0.4671,0.4676,0.4664,0.4664,0.4664,0.4664,0,0.4958,0.4946,0.4915,0.4905,0.489,0.4867,0.4853,0.4837,0.4817,0.4803,0.4784,0.4771,0.4744,0.4727,0.471,0.4693,0.4687,0.4678,0.4673,0.4679,0.468,0.4671,0.4671,0.4664,0.4664,0.4664,0.4664,0,0.4972,0.4951,0.4931,0.4902,0.4894,0.4885,0.4859,0.4848,0.4831,0.4813,0.4808,0.4781,0.4761,0.4738,0.471,0.4699,0.4682,0.4676,0.469,0.4688,0.4686,0.4687,0.4686,0.4684,0.4673,0.4674,0.4674,0,0.4974,0.4964,0.4934,0.4924,0.491,0.4893,0.488,0.4858,0.4845,0.4818,0.481,0.4789,0.477,0.4739,0.4716,0.4695,0.4688,0.4689,0.4684,0.4691,0.4687,0.4688,0.4687,0.469,0.469,0.469,0.4691,0,0.498,0.497,0.4953,0.4932,0.4917,0.4899,0.4881,0.4873,0.4846,0.4833,0.4812,0.4798,0.477,0.4749,0.4724,0.4709,0.4695,0.4692,0.4691,0.4696,0.4705,0.47,0.4693,0.4692,0.4692,0.4692,0.4692,0.4692,0.4988,0.4978,0.4956,0.4937,0.492,0.4904,0.4892,0.4874,0.4856,0.4832,0.4819,0.4799,0.4776,0.4742,0.4727,0.4711,0.4706,0.4704,0.4703,0.4703,0.4704,0.4708,0.4706,0.4706,0.4706,0.4706,0.4706,0,0.4993,0.4977,0.496,0.4935,0.492,0.4909,0.4888,0.4876,0.4859,0.4839,0.4821,0.4798,0.4777,0.4753,0.4731,0.4722,0.4715,0.4717,0.4717,0.4714,0.471,0.4713,0.4723,0.4723,0.4723,0.4723,0.4723,0.4723,0.4993,0.4977,0.4964,0.4939,0.4923,0.4904,0.4892,0.4877,0.4861,0.4835,0.4818,0.4803,0.4782,0.4758,0.4738,0.4732,0.4724,0.4728,0.472,0.4716,0.4714,0.4713,0.4716,0.4727,0.4727,0.4725,0.4725,0.4725]}]]